Weather History for KBVS - March, 2013

Change the Weather History Date:

Sunday, March 10, 2013

  Actual Average (KBLI) Record (KBLI)
Temperature  
Mean Temperature 42 °F 43 °F  
Max Temperature 46 °F 51 °F 65 °F (2005)
Min Temperature 37 °F 36 °F 10 °F (1951)
Degree Days  
Heating Degree Days 24 22  
Month to date heating degree days 224  
Cooling Degree Days 0 0  
Month to date cooling degree days 0  
Year to date cooling degree days 0  
Moisture  
Dew Point 42 °F    
Average Humidity 100    
Maximum Humidity 100    
Minimum Humidity 93    
Precipitation  
Precipitation 0.00 in 0.10 in 0.49 in (2012)
Month to date precipitation 1.03  
Year to date precipitation 8.72  
Sea Level Pressure  
Sea Level Pressure 30.47 in    
Wind  
Wind Speed 1 mph (SSW)    
Max Wind Speed 7 mph    
Max Gust Speed -    
Visibility 9 miles    
Events      
T = Trace of Precipitation, MM = Missing Value Source: NWS Daily Summary

Daily Weather History Graph

Daily Weather History Graph

Search for Another Location

Airport or City:

Trip Planner

Search our weather history database for the weather conditions in past years. The results will help you decide how hot, cold, wet, or windy it might be!

Date:

Astronomy

Mar. 10, 2013 Rise Set
Actual Time 7:32 AM PDT 7:08 PM PDT
Civil Twilight 7:01 AM PDT 7:39 PM PDT
Nautical Twilight 6:24 AM PDT 8:15 PM PDT
Astronomical Twilight 5:48 AM PDT 8:52 PM PDT
Moon 6:38 AM PDT (3/10) 6:21 PM PDT (3/10)
Length of Visible Light 12h 38m
Length of Day
11h 35m
Waning Crescent, 1% of the Moon is Illuminated
Mar 10
Waning Crescent
Mar 11
New
Mar 19
First Quarter
Mar 27
Full
Apr 2
Last Quarter

Hourly Weather History & Observations

Time (PDT) Temp. Windchill Dew Point Humidity Pressure Visibility Wind Dir Wind Speed Gust Speed Precip Events Conditions
12:15 AM 37.4 °F - 37.4 °F 100% 30.50 in 10.0 mi Calm Calm - 0.00 in   Scattered Clouds
12:35 AM 37.4 °F - 37.4 °F 100% 30.50 in 9.0 mi Calm Calm - 0.00 in   Overcast
12:55 AM 37.4 °F - 37.4 °F 100% 30.49 in 10.0 mi Calm Calm - 0.00 in   Overcast
1:15 AM 37.4 °F - 37.4 °F 100% 30.50 in 10.0 mi Calm Calm - 0.00 in   Overcast
1:35 AM 37.4 °F - 37.4 °F 100% 30.50 in 10.0 mi Calm Calm - 0.00 in   Overcast
1:55 AM 37.4 °F - 37.4 °F 100% 30.50 in 10.0 mi Calm Calm - 0.00 in   Overcast
3:15 AM 37.4 °F - 37.4 °F 100% 30.50 in 10.0 mi Calm Calm - 0.00 in   Overcast
3:55 AM 39.2 °F - 39.2 °F 100% 30.50 in 10.0 mi Calm Calm - 0.00 in   Overcast
4:15 AM 37.4 °F - 37.4 °F 100% 30.49 in 10.0 mi Calm Calm - 0.00 in   Overcast
5:35 AM 39.2 °F - 39.2 °F 100% 30.50 in 10.0 mi Calm Calm - 0.00 in   Scattered Clouds
5:55 AM 39.2 °F - 39.2 °F 100% 30.50 in 10.0 mi Calm Calm - 0.00 in   Clear
6:15 AM 39.2 °F 37.0 °F 39.2 °F 100% 30.50 in 10.0 mi ESE 3.5 mph - 0.00 in   Clear
6:35 AM 39.2 °F 37.0 °F 39.2 °F 100% 30.49 in 10.0 mi SE 3.5 mph - 0.00 in   Clear
6:55 AM 39.2 °F - 39.2 °F 100% 30.48 in 10.0 mi Calm Calm - 0.00 in   Partly Cloudy
7:15 AM 39.2 °F 37.0 °F 39.2 °F 100% 30.48 in 10.0 mi ESE 3.5 mph - 0.00 in   Mostly Cloudy
7:35 AM 39.2 °F - 39.2 °F 100% 30.48 in 10.0 mi Calm Calm - 0.00 in   Mostly Cloudy
7:55 AM 39.2 °F - 39.2 °F 100% 30.48 in 10.0 mi Calm Calm - 0.00 in   Mostly Cloudy
8:15 AM 39.2 °F - 39.2 °F 100% 30.48 in 10.0 mi Calm Calm - 0.00 in   Mostly Cloudy
8:35 AM 41.0 °F - 41.0 °F 100% 30.48 in 10.0 mi Calm Calm - 0.00 in   Mostly Cloudy
8:55 AM 41.0 °F - 41.0 °F 100% 30.48 in 10.0 mi Calm Calm - 0.00 in   Scattered Clouds
9:15 AM 42.8 °F - 42.8 °F 100% 30.49 in 10.0 mi Calm Calm - 0.00 in   Mostly Cloudy
9:35 AM 42.8 °F 40.1 °F 42.8 °F 100% 30.48 in 10.0 mi SSE 4.6 mph - 0.00 in   Partly Cloudy
9:55 AM 42.8 °F - 42.8 °F 100% 30.49 in 10.0 mi Calm Calm - 0.00 in   Scattered Clouds
10:15 AM 42.8 °F - 42.8 °F 100% 30.48 in 10.0 mi Calm Calm - 0.00 in   Mostly Cloudy
10:35 AM 42.8 °F - 42.8 °F 100% 30.48 in 10.0 mi Calm Calm - 0.00 in   Mostly Cloudy
10:55 AM 44.6 °F 43.1 °F 44.6 °F 100% 30.49 in 10.0 mi South 3.5 mph - 0.00 in   Partly Cloudy
11:15 AM 44.6 °F 42.2 °F 44.6 °F 100% 30.48 in 10.0 mi South 4.6 mph - 0.00 in   Scattered Clouds
11:35 AM 44.6 °F 41.4 °F 44.6 °F 100% 30.48 in 8.0 mi SSE 5.8 mph - 0.00 in   Mostly Cloudy
11:55 AM 44.6 °F 41.4 °F 44.6 °F 100% 30.47 in 9.0 mi South 5.8 mph - 0.00 in   Mostly Cloudy
12:15 PM 44.6 °F 41.4 °F 44.6 °F 100% 30.47 in 9.0 mi South 5.8 mph - 0.00 in   Overcast
12:35 PM 44.6 °F 43.1 °F 44.6 °F 100% 30.47 in 10.0 mi South 3.5 mph - 0.00 in   Overcast
12:55 PM 44.6 °F - 44.6 °F 100% 30.47 in 10.0 mi Calm Calm - 0.00 in   Overcast
1:15 PM 46.4 °F 43.5 °F 44.6 °F 93% 30.47 in 10.0 mi SSW 5.8 mph - 0.00 in   Overcast
1:35 PM 46.4 °F 44.3 °F 46.4 °F 100% 30.47 in 10.0 mi SSW 4.6 mph - 0.00 in   Overcast
1:55 PM 46.4 °F 44.3 °F 46.4 °F 100% 30.46 in 10.0 mi SW 4.6 mph - 0.00 in   Overcast
2:15 PM 44.6 °F 41.4 °F 44.6 °F 100% 30.46 in 10.0 mi WSW 5.8 mph - 0.00 in   Overcast
2:35 PM 44.6 °F 41.4 °F 44.6 °F 100% 30.45 in 10.0 mi SW 5.8 mph - 0.00 in   Overcast
2:55 PM 44.6 °F 43.1 °F 44.6 °F 100% 30.46 in 10.0 mi West 3.5 mph - 0.00 in   Overcast
3:15 PM 44.6 °F - 44.6 °F 100% 30.46 in 10.0 mi Calm Calm - 0.00 in   Overcast
3:35 PM 44.6 °F 43.1 °F 44.6 °F 100% 30.46 in 9.0 mi WSW 3.5 mph - 0.00 in   Overcast
3:55 PM 44.6 °F 43.1 °F 44.6 °F 100% 30.46 in 10.0 mi SW 3.5 mph - 0.00 in   Overcast
4:15 PM 44.6 °F 41.4 °F 44.6 °F 100% 30.46 in 9.0 mi WSW 5.8 mph - 0.00 in   Overcast
4:35 PM 44.6 °F 43.1 °F 44.6 °F 100% 30.46 in 10.0 mi West 3.5 mph - 0.00 in   Overcast
4:55 PM 44.6 °F 42.2 °F 44.6 °F 100% 30.46 in 10.0 mi WSW 4.6 mph - 0.00 in   Overcast
5:15 PM 44.6 °F 40.7 °F 44.6 °F 100% 30.46 in 10.0 mi SW 6.9 mph - 0.00 in   Overcast
5:35 PM 44.6 °F 43.1 °F 44.6 °F 100% 30.45 in 10.0 mi SW 3.5 mph - 0.00 in   Overcast
6:15 PM 44.6 °F 42.2 °F 44.6 °F 100% 30.45 in 10.0 mi SSW 4.6 mph - 0.00 in   Overcast
6:35 PM 44.6 °F - 44.6 °F 100% 30.45 in 10.0 mi Calm Calm - 0.00 in   Overcast
6:55 PM 44.6 °F 43.1 °F 44.6 °F 100% 30.45 in 10.0 mi South 3.5 mph - 0.00 in   Overcast
7:15 PM 44.6 °F 41.4 °F 44.6 °F 100% 30.45 in 10.0 mi SW 5.8 mph - 0.00 in   Overcast
7:35 PM 42.8 °F - 42.8 °F 100% 30.45 in 10.0 mi Calm Calm - 0.00 in   Overcast
7:55 PM 42.8 °F - 42.8 °F 100% 30.45 in 10.0 mi Calm Calm - 0.00 in   Overcast
8:15 PM 42.8 °F - 42.8 °F 100% 30.45 in 10.0 mi Calm Calm - 0.00 in   Overcast
8:35 PM 42.8 °F - 42.8 °F 100% 30.45 in 10.0 mi Calm Calm - 0.00 in   Overcast
8:55 PM 42.8 °F - 42.8 °F 100% 30.45 in 10.0 mi Calm Calm - 0.00 in   Overcast
9:15 PM 42.8 °F - 42.8 °F 100% 30.45 in 10.0 mi Calm Calm - 0.00 in   Overcast
9:35 PM 42.8 °F - 42.8 °F 100% 30.45 in 10.0 mi Calm Calm - 0.00 in   Overcast
9:55 PM 42.8 °F - 42.8 °F 100% 30.45 in 8.0 mi Calm Calm - 0.00 in   Overcast
10:15 PM 42.8 °F - 42.8 °F 100% 30.44 in 7.0 mi Calm Calm - 0.00 in   Overcast
10:35 PM 42.8 °F - 42.8 °F 100% 30.45 in 8.0 mi Calm Calm - 0.00 in   Overcast
10:55 PM 41.0 °F - 41.0 °F 100% 30.45 in 5.0 mi Calm Calm - 0.00 in   Overcast
11:15 PM 41.0 °F - 41.0 °F 100% 30.44 in 5.0 mi Calm Calm - 0.00 in   Overcast
11:55 PM 39.2 °F - 39.2 °F 100% 30.45 in 3.0 mi Calm Calm - 0.00 in   Overcast
12:15 AM 39.2 °F - 39.2 °F 100% 30.46 in 2.5 mi Calm Calm - 0.00 in   Scattered Clouds
12:35 AM 39.2 °F - 39.2 °F 100% 30.46 in 0.5 mi Calm Calm - 0.00 in   Mostly Cloudy
12:55 AM 39.2 °F - 39.2 °F 100% 30.46 in 0.8 mi Calm Calm - 0.00 in   Overcast